Gwinn, MI

8:36 AM EST on January 18, 2017 (GMT -0500)
Sawyer International

Weather History for KSAW - July, 2013

Change the Weather History Date:

Saturday, July 20, 2013

  Actual Average (KESC) Record (KESC)
Temperature  
Mean Temperature 54 °F -  
Max Temperature 62 °F 75 °F 93 °F (1977)
Min Temperature 47 °F 58 °F 42 °F (1996)
Degree Days  
Heating Degree Days 10    
Growing Degree Days 4 (Base 50)    
Moisture  
Dew Point 50 °F    
Average Humidity 75    
Maximum Humidity 89    
Minimum Humidity 59    
Precipitation  
Precipitation 0.00 in - - ()
Sea Level Pressure  
Sea Level Pressure 29.90 in    
Wind  
Wind Speed 5 mph (North)    
Max Wind Speed 17 mph    
Max Gust Speed 24 mph    
Visibility 10 miles    
Events      
Averages and records for this station are not official NWS values.
T = Trace of Precipitation, MM = Missing Value Source: NWS Daily Summary

Daily Weather History Graph

Daily Weather History Graph

Search for Another Location

Airport or City:

Trip Planner

Search our weather history database for the weather conditions in past years. The results will help you decide how hot, cold, wet, or windy it might be!

Date:

Astronomy

Jul. 20, 2013 Rise Set
Actual Time 6:17 AM EDT 9:33 PM EDT
Civil Twilight 5:40 AM EDT 10:10 PM EDT
Nautical Twilight 4:53 AM EDT 10:57 PM EDT
Astronomical Twilight 3:53 AM EDT 11:57 PM EDT
Moon 7:35 PM EDT (7/20) 3:57 AM EDT (7/20)
Length of Visible Light 16h 29m
Length of Day
15h 16m
Waxing Gibbous, 93% of the Moon is Illuminated
Jul 20
Waxing Gibbous
Jul 22
Full
Jul 29
Last Quarter
Aug 6
New
Aug 14
First Quarter

Hourly Weather History & Observations

Time (EDT) Temp. Dew Point Humidity Pressure Visibility Wind Dir Wind Speed Gust Speed Precip Events Conditions
12:16 AM 62.6 °F 54.7 °F 75% 29.78 in 10.0 mi Calm Calm - N/A   Clear
12:35 AM 61.7 °F 54.5 °F 77% 29.78 in 10.0 mi Calm Calm - N/A   Clear
12:56 AM 62.1 °F 55.4 °F 79% 29.78 in 10.0 mi WSW 4.6 mph - N/A   Clear
1:16 AM 61.9 °F 55.8 °F 80% 29.78 in 10.0 mi West 3.5 mph - N/A   Scattered Clouds
1:36 AM 62.1 °F 56.3 °F 81% 29.77 in 10.0 mi Calm Calm - N/A   Mostly Cloudy
1:56 AM 61.9 °F 56.3 °F 82% 29.78 in 10.0 mi Calm Calm - N/A   Overcast
2:15 AM 61.2 °F 55.9 °F 83% 29.79 in 10.0 mi Calm Calm - N/A   Overcast
2:36 AM 60.8 °F 55.6 °F 83% 29.79 in 10.0 mi Calm Calm - N/A   Overcast
2:56 AM 61.7 °F 55.6 °F 80% 29.79 in 10.0 mi Calm Calm - N/A   Mostly Cloudy
3:16 AM 62.1 °F 55.8 °F 80% 29.79 in 10.0 mi Calm Calm - N/A   Mostly Cloudy
3:36 AM 61.3 °F 55.8 °F 82% 29.79 in 10.0 mi Calm Calm - N/A   Scattered Clouds
3:55 AM 60.3 °F 55.8 °F 85% 29.80 in 10.0 mi North 3.5 mph - N/A   Clear
4:16 AM 61.9 °F 54.5 °F 77% 29.80 in 10.0 mi North 8.1 mph - N/A   Clear
4:36 AM 61.0 °F 53.2 °F 76% 29.82 in 10.0 mi North 17.3 mph 24.2 mph N/A   Clear
4:56 AM 59.0 °F 51.4 °F 76% 29.82 in 10.0 mi North 11.5 mph - N/A   Clear
5:16 AM 58.1 °F 50.9 °F 77% 29.83 in 10.0 mi North 11.5 mph - N/A   Clear
5:35 AM 57.2 °F 50.4 °F 78% 29.84 in 10.0 mi North 9.2 mph - N/A   Clear
5:56 AM 56.5 °F 50.0 °F 79% 29.85 in 10.0 mi North 10.4 mph - N/A   Clear
6:50 AM 55.4 °F 50.0 °F 82% 29.87 in 10.0 mi North 6.9 mph - N/A   Clear
7:50 AM 57.2 °F 48.2 °F 72% 29.89 in 10.0 mi North 13.8 mph - N/A   Clear
8:55 AM 57.2 °F 44.6 °F 63% 29.92 in 10.0 mi NNE 17.3 mph - N/A   Clear
9:50 AM 59.0 °F 44.6 °F 59% 29.94 in 10.0 mi NE 17.3 mph 23.0 mph N/A   Clear
10:50 AM 59.0 °F 44.6 °F 59% 29.96 in 10.0 mi NNE 13.8 mph 21.9 mph N/A   Scattered Clouds
11:50 AM 59.0 °F 46.4 °F 63% 29.98 in 10.0 mi North 11.5 mph 17.3 mph N/A   Scattered Clouds
12:50 PM 60.8 °F 46.4 °F 59% 29.99 in 10.0 mi NNE 15.0 mph 20.7 mph N/A   Scattered Clouds
1:50 PM 60.8 °F 46.4 °F 59% 30.00 in 10.0 mi NNE 8.1 mph 17.3 mph N/A   Partly Cloudy
2:50 PM 60.8 °F 46.4 °F 59% 29.99 in 10.0 mi NNE 13.8 mph 18.4 mph N/A   Partly Cloudy
3:50 PM 59.0 °F 46.4 °F 63% 30.00 in 10.0 mi NNE 15.0 mph 23.0 mph N/A   Partly Cloudy
4:50 PM 59.0 °F 46.4 °F 63% 30.01 in 10.0 mi NNE 13.8 mph 20.7 mph N/A   Partly Cloudy
5:55 PM 57.2 °F 46.4 °F 67% 30.01 in 10.0 mi North 12.7 mph - N/A   Clear
6:55 PM 57.2 °F 46.4 °F 67% 30.00 in 10.0 mi NNE 15.0 mph - N/A   Clear
7:50 PM 55.4 °F 44.6 °F 67% 30.00 in 10.0 mi NNE 10.4 mph - N/A   Clear
8:50 PM 53.6 °F 44.6 °F 72% 30.00 in 10.0 mi NNE 10.4 mph - N/A   Clear
9:50 PM 51.8 °F 46.4 °F 82% 30.01 in 10.0 mi NNE 6.9 mph - N/A   Clear
10:15 PM 50.9 °F 45.5 °F 82% 30.03 in 10.0 mi Calm Calm - N/A   Clear
10:36 PM 50.7 °F 45.5 °F 82% 30.03 in 10.0 mi NNE 3.5 mph - N/A   Clear
10:56 PM 48.9 °F 44.6 °F 85% 30.04 in 10.0 mi Calm Calm - N/A   Clear
11:15 PM 47.7 °F 44.4 °F 89% 30.04 in 10.0 mi North 5.8 mph - N/A   Clear
11:36 PM 47.7 °F 44.4 °F 89% 30.04 in 10.0 mi North 3.5 mph - N/A   Clear
11:56 PM 47.5 °F 43.9 °F 87% 30.04 in 10.0 mi Calm Calm - N/A   Clear